Sioux Falls, SD

2:34 AM CDT on October 15, 2019 (GMT -0500)
Foss

Weather History for KFSD - September, 2019

Change the Weather History Date:

Saturday, September 21, 2019

  Actual Average Record
Temperature  
Mean Temperature 70 °F 59 °F  
Max Temperature 82 °F 71 °F 93 °F (1937)
Min Temperature 57 °F 47 °F 25 °F (1913)
Degree Days  
Heating Degree Days 0 7  
Month to date heating degree days 10 90  
Since 1 July heating degree days 15 121  
Cooling Degree Days 4 1  
Month to date cooling degree days 112 54  
Year to date cooling degree days 818 679  
Growing Degree Days 20 (Base 50)    
Moisture  
Dew Point 64 °F    
Average Humidity 74    
Maximum Humidity 90    
Minimum Humidity 42    
Precipitation  
Precipitation 0.02 in 0.10 in 1.70 in (1959)
Month to date precipitation 4.40 1.98  
Year to date precipitation 34.24 21.37  
Snow  
Snow 0.00 in 0.00 in 0.00 in ()
Month to date snowfall 0.0 0.0  
Since 1 July snowfall T 0.0  
Since 1 September snowfall 0.0 0.0  
Snow Depth 0.00 in    
Sea Level Pressure  
Sea Level Pressure 29.76 in    
Wind  
Wind Speed 13 mph ()    
Max Wind Speed 18 mph    
Max Gust Speed 36 mph    
Visibility 10.0 miles    
Events Rain    
T = Trace of Precipitation, MM = Missing Value Source: Averaged Metar Reports

Daily Weather History Graph

Daily Weather History Graph

Search for Another Location

Airport or City:

Astronomy

Sep. 21, 2019 Rise Set
Actual Time 7:12 AM CDT 7:26 PM CDT
Civil Twilight 6:44 AM CDT 7:55 PM CDT
Nautical Twilight 6:10 AM CDT 8:28 PM CDT
Astronomical Twilight 5:36 AM CDT 9:02 PM CDT
Moon 11:53 PM CDT (9/21) 2:32 PM CDT (9/21)
Length of Visible Light 13h 10m
Length of Day
12h 13m
Waning Gibbous, 54% of the Moon is Illuminated
Sep 21
Waning Gibbous
Sep 21
Last Quarter
Sep 28
New
Oct 5
First Quarter
Oct 13
Full

Hourly Weather History & Observations

Time (CDT) Temp. Heat Index Dew Point Humidity Pressure Visibility Wind Dir Wind Speed Gust Speed Precip Events Conditions
12:15 AM 73.9 °F - 64.9 °F 73% 29.82 in 10.0 mi South 18.4 mph - N/A   Overcast
12:56 AM 73.9 °F - 64.9 °F 73% 29.78 in 10.0 mi South 17.3 mph 29.9 mph N/A   Overcast
1:56 AM 72.0 °F - 66.9 °F 84% 29.78 in 10.0 mi South 12.7 mph - 0.00 in   Overcast
2:09 AM 72.0 °F - 66.9 °F 84% 29.81 in 10.0 mi South 13.8 mph - N/A   Overcast
2:36 AM 72.0 °F - 66.0 °F 81% 29.80 in 10.0 mi South 18.4 mph 25.3 mph N/A   Overcast
2:56 AM 72.0 °F - 66.9 °F 84% 29.76 in 10.0 mi South 11.5 mph 21.9 mph N/A   Overcast
3:20 AM 72.0 °F - 66.0 °F 81% 29.78 in 10.0 mi South 12.7 mph 23.0 mph N/A   Overcast
3:27 AM 72.0 °F - 66.0 °F 81% 29.77 in 10.0 mi SSE 17.3 mph 25.3 mph N/A   Overcast
3:53 AM 73.4 °F - 66.2 °F 78% 29.76 in 10.0 mi SSE 17.3 mph 27.6 mph N/A   Overcast
3:56 AM 73.0 °F - 66.0 °F 79% 29.72 in 10.0 mi South 17.3 mph 33.4 mph N/A   Overcast
4:56 AM 73.0 °F - 66.9 °F 81% 29.70 in 10.0 mi SSE 16.1 mph 29.9 mph N/A   Overcast
5:05 AM 73.0 °F - 66.9 °F 81% 29.72 in 10.0 mi SSE 18.4 mph 26.5 mph N/A   Overcast
5:35 AM 73.0 °F - 66.9 °F 81% 29.74 in 10.0 mi South 17.3 mph 29.9 mph N/A   Overcast
5:44 AM 73.0 °F - 66.9 °F 81% 29.73 in 10.0 mi South 16.1 mph 26.5 mph N/A   Overcast
5:56 AM 73.0 °F - 66.9 °F 81% 29.71 in 10.0 mi South 15.0 mph 25.3 mph N/A   Overcast
6:48 AM 72.0 °F - 68.0 °F 87% 29.72 in 10.0 mi South 16.1 mph 24.2 mph 0.02 in Rain Light Rain
6:56 AM 72.0 °F - 68.0 °F 87% 29.69 in 10.0 mi South 17.3 mph 25.3 mph 0.02 in   Overcast
7:07 AM 72.0 °F - 68.0 °F 87% 29.72 in 10.0 mi South 16.1 mph 25.3 mph N/A   Overcast
7:56 AM 73.0 °F - 68.0 °F 84% 29.70 in 10.0 mi South 16.1 mph - N/A   Mostly Cloudy
8:40 AM 73.9 °F - 69.1 °F 85% 29.73 in 10.0 mi South 16.1 mph - N/A   Mostly Cloudy
8:56 AM 73.9 °F - 69.1 °F 85% 29.71 in 10.0 mi South 16.1 mph - N/A   Overcast
9:08 AM 73.9 °F - 69.1 °F 85% 29.74 in 10.0 mi South 13.8 mph - N/A   Overcast
9:24 AM 75.0 °F - 69.1 °F 82% 29.74 in 10.0 mi South 17.3 mph 25.3 mph N/A   Mostly Cloudy
9:38 AM 75.9 °F - 70.0 °F 82% 29.74 in 10.0 mi South 12.7 mph - N/A   Mostly Cloudy
9:56 AM 75.9 °F - 69.1 °F 79% 29.71 in 10.0 mi SSW 13.8 mph - N/A   Overcast
10:56 AM 78.1 °F - 69.1 °F 74% 29.72 in 10.0 mi WSW 8.1 mph - N/A   Scattered Clouds
11:56 AM 80.1 °F 81.7 °F 64.0 °F 58% 29.73 in 10.0 mi WSW 8.1 mph - N/A   Partly Cloudy
12:56 PM 81.0 °F 81.7 °F 61.0 °F 50% 29.73 in 10.0 mi West 10.4 mph - N/A   Partly Cloudy
1:56 PM 81.0 °F 81.9 °F 62.1 °F 52% 29.73 in 10.0 mi WSW 8.1 mph 17.3 mph N/A   Partly Cloudy
2:56 PM 81.0 °F 81.9 °F 62.1 °F 52% 29.74 in 10.0 mi WSW 11.5 mph 19.6 mph N/A   Partly Cloudy
3:56 PM 81.0 °F 81.7 °F 61.0 °F 50% 29.75 in 10.0 mi West 9.2 mph - N/A   Clear
4:56 PM 80.1 °F 80.9 °F 60.1 °F 50% 29.75 in 10.0 mi West 10.4 mph 21.9 mph N/A   Partly Cloudy
5:56 PM 78.1 °F - 53.1 °F 42% 29.78 in 10.0 mi West 11.5 mph 23.0 mph N/A   Clear
6:56 PM 73.9 °F - 52.0 °F 46% 29.81 in 10.0 mi WNW 9.2 mph - N/A   Clear
7:56 PM 69.1 °F - 55.0 °F 61% 29.83 in 10.0 mi NW 9.2 mph - N/A   Clear
8:56 PM 64.9 °F - 55.9 °F 73% 29.85 in 10.0 mi NW 6.9 mph - N/A   Clear
9:56 PM 64.0 °F - 55.9 °F 75% 29.87 in 10.0 mi Calm Calm - N/A   Clear
10:56 PM 60.1 °F - 55.0 °F 83% 29.88 in 10.0 mi Calm Calm - N/A   Clear
11:56 PM 62.1 °F - 55.0 °F 78% 29.89 in 10.0 mi Calm Calm - N/A   Partly Cloudy